Hebron, KY

7:18 PM EST on February 06, 2016 (GMT -0500)
Cincinnati-Northern KY International

Weather History for KCVG - July, 2012

Change the Weather History Date:

Thursday, July 26, 2012

  Actual Average Record
Temperature  
Mean Temperature 85 °F 76 °F  
Max Temperature 96 °F 86 °F 100 °F (1934)
Min Temperature 74 °F 66 °F 52 °F (1962)
Degree Days  
Heating Degree Days 0 0  
Month to date heating degree days 0 0  
Since 1 June heating degree days 12 15  
Since 1 July heating degree days 0 0  
Cooling Degree Days 20 11  
Month to date cooling degree days 447 284  
Year to date cooling degree days 911 604  
Since 1 June cooling degree days 708 510  
Growing Degree Days 36 (Base 50)    
Moisture  
Dew Point 71 °F    
Average Humidity 70    
Maximum Humidity 94    
Minimum Humidity 45    
Precipitation  
Precipitation 0.02 in 0.13 in 2.08 in (1921)
Month to date precipitation 1.29 3.16  
Year to date precipitation 20.12 25.78  
Snow  
Snow 0.00 in 0.00 in - ()
Month to date snowfall 0.0 0.0  
Since 1 June snowfall 0.0 0.0  
Since 1 July snowfall 0.0 0.0  
Snow Depth 0.00 in    
Sea Level Pressure  
Sea Level Pressure 29.74 in    
Wind  
Wind Speed 10 mph (WSW)    
Max Wind Speed 31 mph    
Max Gust Speed 43 mph    
Visibility 10 miles    
Events Rain , Thunderstorm    
T = Trace of Precipitation, MM = Missing Value Source: NWS Daily Summary

Daily Weather History Graph

Daily Weather History Graph

Search for Another Location

Airport or City:

Trip Planner

Search our weather history database for the weather conditions in past years. The results will help you decide how hot, cold, wet, or windy it might be!

Date:

Astronomy

Jul. 26, 2012 Rise Set
Actual Time 6:34 AM EDT 8:55 PM EDT
Civil Twilight 6:04 AM EDT 9:25 PM EDT
Nautical Twilight 5:26 AM EDT 10:02 PM EDT
Astronomical Twilight 4:45 AM EDT 10:43 PM EDT
Moon 2:42 PM EDT (7/26) 12:25 AM EDT (7/26)
Length of Visible Light 15h 21m
Length of Day
14h 20m
First Quarter, 53% of the Moon is Illuminated
Jul 26
First Quarter
Aug 1
Full
Aug 9
Last Quarter
Aug 17
New
Aug 24
First Quarter

Hourly Weather History & Observations

Time (EDT) Temp. Heat Index Dew Point Humidity Pressure Visibility Wind Dir Wind Speed Gust Speed Precip Events Conditions
12:52 AM 84.9 °F 90.7 °F 72.0 °F 65% 29.75 in 10.0 mi SSW 11.5 mph 20.7 mph N/A   Clear
1:52 AM 84.0 °F 89.0 °F 71.1 °F 65% 29.74 in 10.0 mi SSW 11.5 mph 18.4 mph N/A   Clear
2:52 AM 84.0 °F 88.4 °F 70.0 °F 63% 29.75 in 10.0 mi SW 9.2 mph - N/A   Clear
3:52 AM 82.0 °F 85.9 °F 70.0 °F 67% 29.76 in 10.0 mi SW 5.8 mph - N/A   Clear
4:52 AM 80.1 °F 83.2 °F 70.0 °F 71% 29.75 in 10.0 mi SSW 8.1 mph - N/A   Clear
5:52 AM 80.1 °F 82.9 °F 69.1 °F 69% 29.75 in 10.0 mi SSW 11.5 mph - N/A   Clear
6:52 AM 79.0 °F - 70.0 °F 74% 29.75 in 10.0 mi SSW 6.9 mph - N/A   Clear
7:52 AM 80.1 °F 83.6 °F 71.1 °F 74% 29.75 in 10.0 mi South 9.2 mph - N/A   Clear
8:52 AM 82.9 °F 87.5 °F 71.1 °F 67% 29.76 in 10.0 mi SSW 12.7 mph 20.7 mph N/A   Clear
9:52 AM 86.0 °F 91.5 °F 71.1 °F 61% 29.77 in 10.0 mi SW 12.7 mph 25.3 mph N/A   Scattered Clouds
10:52 AM 89.1 °F 95.0 °F 71.1 °F 55% 29.76 in 10.0 mi SW 13.8 mph 19.6 mph N/A   Partly Cloudy
11:52 AM 91.9 °F 98.4 °F 71.1 °F 50% 29.76 in 10.0 mi WSW 13.8 mph 19.6 mph N/A   Mostly Cloudy
12:52 PM 93.9 °F 100.8 °F 71.1 °F 47% 29.75 in 10.0 mi West 15.0 mph 21.9 mph N/A   Mostly Cloudy
1:52 PM 96.1 °F 103.5 °F 71.1 °F 44% 29.73 in 10.0 mi SW 11.5 mph - N/A   Mostly Cloudy
2:52 PM 93.9 °F 100.8 °F 71.1 °F 47% 29.71 in 10.0 mi SW 13.8 mph 17.3 mph N/A   Mostly Cloudy
3:16 PM 93.2 °F 98.8 °F 69.8 °F 46% 29.73 in 10.0 mi SW 17.3 mph 21.9 mph N/A Thunderstorm Thunderstorm
3:32 PM 93.2 °F 98.8 °F 69.8 °F 46% 29.73 in 10.0 mi West 15.0 mph 25.3 mph N/A Thunderstorm Thunderstorm
3:45 PM 93.2 °F 100.5 °F 71.6 °F 49% 29.74 in 10.0 mi West 18.4 mph 27.6 mph N/A Thunderstorm Thunderstorm
3:52 PM 91.0 °F 98.2 °F 72.0 °F 53% 29.69 in 10.0 mi West 16.1 mph 25.3 mph N/A Thunderstorm Thunderstorm
4:10 PM 91.4 °F 98.4 °F 71.6 °F 52% 29.73 in 10.0 mi West 12.7 mph 21.9 mph N/A   Overcast
4:52 PM 93.0 °F 100.7 °F 72.0 °F 50% 29.67 in 10.0 mi WSW 11.5 mph 21.9 mph N/A   Overcast
5:52 PM 93.0 °F 99.0 °F 70.0 °F 47% 29.68 in 10.0 mi West 16.1 mph 23.0 mph N/A   Mostly Cloudy
6:01 PM 91.4 °F 96.8 °F 69.8 °F 49% 29.72 in 10.0 mi WSW 15.0 mph 26.5 mph N/A Thunderstorm Thunderstorm
6:27 PM 89.6 °F 94.7 °F 69.8 °F 52% 29.71 in 10.0 mi NW 12.7 mph 23.0 mph N/A Thunderstorm Thunderstorm
6:34 PM 87.8 °F 91.4 °F 68.0 °F 52% 29.71 in 10.0 mi NW 15.0 mph - N/A Thunderstorm Thunderstorm
6:52 PM 78.1 °F - 69.1 °F 74% 29.70 in 10.0 mi Calm Calm - 0.01 in Thunderstorm Thunderstorm
7:13 PM 82.4 °F 87.2 °F 71.6 °F 70% 29.73 in 10.0 mi North 6.9 mph - N/A   Mostly Cloudy
7:22 PM 80.6 °F 85.4 °F 73.4 °F 79% 29.73 in 10.0 mi North 10.4 mph 19.6 mph N/A Thunderstorm Thunderstorm
7:52 PM 80.1 °F 84.2 °F 73.0 °F 79% 29.72 in 10.0 mi North 4.6 mph - 0.00 in Thunderstorm Thunderstorm
8:52 PM 80.1 °F 84.2 °F 73.0 °F 79% 29.76 in 10.0 mi SSE 8.1 mph - N/A Thunderstorm Thunderstorm
9:22 PM 80.6 °F 84.6 °F 71.6 °F 74% 29.80 in 10.0 mi Calm Calm - 0.00 in Rain Light Rain
9:52 PM 80.1 °F 84.5 °F 73.9 °F 81% 29.76 in 10.0 mi Calm Calm - 0.01 in   Overcast
10:52 PM 75.9 °F - 73.0 °F 91% 29.76 in 6.0 mi South 3.5 mph - N/A   Mostly Cloudy
11:52 PM 73.9 °F - 71.1 °F 91% 29.79 in 10.0 mi South 4.6 mph - N/A   Mostly Cloudy